Weather in Luxembourg

Luxembourg     49°36′39″N   6°07′26″E
temp.,
°C
wind,
m/s
gust,
m/s
humid.,
%
clouds,
%
prec.,
mm/h
press.,
hPa
HPBL,
m
17 april, sat
sat1723:00+3ne238296 0.0 102648
02:00+1nne22895 0.0 102530
05:00+1nne229089 0.0 102523
08:00+3nne368595 0.0 1025193
11:00+7ne566542 0.0 1024988
14:00+10nne67465 0.0 10221640
17:00+10nne675697 0.0 10211626
20:00+8nne486695 0.0 1022342
18 april, sun
sun1823:00+4nne337635 0.0 102353
02:00+3n228595 0.0 102223
05:00+4nnw247889 0.0 1022132
08:00+4n268479 0.0 1022260
11:00+8nne357182 0.0 1022789
14:00+9ne447586 0.2 1021758
17:00+9ene557785 0.4 1021793
20:00+8e238730 0.6 1021114
19 april, mon
mon1923:00+5nnw118971 0.0 102210
02:00+5wnw119092 0.0 102113
05:00+6nw1191100 0.0 102024
08:00+6nw2492100 0.1 1020134
11:00+7nnw2390100 0.0 1020363
14:00+8nnw4588100 0.4 1020391
17:00+12nw346945 0.1 10181057
20:00+8nw238753 0.6 101855
20 april, tue
tue2023:00+5nnw229345 0.0 101925
02:00+4n22955 0.0 101828
05:00+4nne22975 0.0 101828
08:00+5nne23945 0.0 101889
11:00+10ene227730 0.0 1017646
14:00+14e116334 1.1 10161170
17:00+13n336631 1.6 10151064
20:00+10n4784100 3.2 1016160
21 april, wed
wed2123:00+7n358927 0.3 101784
02:00+6n359055 0.3 101870
05:00+6nnw3591100 0.0 1018131
08:00+7nnw2790100 0.0 1018215
11:00+9n3579100 0.0 1019483
14:00+11nnw556999 0.1 10191028
17:00+9n687690 0.1 1020798
20:00+8n37715 0.1 1021411